Lapse_Rate
5.7 5.1 4.9 5.7 5.4 5.6 5.9 6.0 6.1 6.9 7.6 7.8 8.3 8.4 8.6 8.0 7.1 7.3 8.1 8.1 8.1 7.7 5.9 5.8 5.9 6.3 6.1 6.1 6.4 6.4 6.1 5.8 5.9 6.2 5.9 5.7 5.6 5.8 6.0 5.7 5.9 5.7 5.7 5.6
5.3 4.6 6.4 6.0 5.9 5.8 6.0 6.2 6.2 7.6 7.8 7.9 8.6 8.4 8.3 7.7 7.6 7.8 8.4 7.2 7.4 7.8 6.9 6.1 5.3 6.1 6.2 6.6 6.6 6.2 6.2 5.8 6.0 6.1 5.7 5.7 5.6 5.7 5.8 5.7 5.8 5.6 5.7 5.7
5.4 5.7 6.0 5.9 5.9 5.8 5.9 6.2 6.5 6.8 8.4 8.0 8.4 8.4 7.4 7.3 7.6 8.1 7.6 7.6 7.6 8.0 7.6 6.7 5.9 6.4 6.5 6.5 6.8 6.5 6.2 5.9 6.0 5.9 5.7 5.7 5.7 5.6 5.8 6.0 5.8 5.9 5.8 5.7
5.5 6.2 6.0 6.1 5.9 6.0 5.8 6.2 7.0 7.0 7.6 7.4 8.3 8.0 7.7 7.9 7.5 7.2 7.8 7.9 8.3 8.0 7.5 7.2 6.4 6.7 6.9 6.5 6.5 6.3 6.0 5.8 5.8 5.7 5.9 5.8 6.0 6.1 6.2 6.0 5.8 5.9 5.9 5.9
5.0 5.6 5.5 5.8 6.3 6.1 6.0 6.6 7.0 7.1 7.5 7.6 8.0 8.4 8.5 8.1 7.8 7.4 7.7 8.1 8.3 7.9 8.1 7.4 7.0 6.9 6.8 6.2 5.8 6.3 6.2 6.0 5.8 5.9 5.9 5.9 5.8 5.9 5.9 5.8 6.1 6.1 6.0 5.9
5.8 6.1 6.5 6.2 6.4 6.4 6.4 6.7 7.1 7.5 7.9 7.5 7.8 7.8 8.5 7.2 7.9 8.0 8.2 7.9 8.3 8.2 8.8 8.1 7.0 6.7 6.8 6.6 6.1 6.0 6.2 6.2 6.0 6.0 5.9 5.9 6.0 6.0 5.9 6.0 6.2 6.2 6.1 6.0
6.3 6.1 6.2 6.6 6.7 6.6 6.6 7.0 6.9 7.1 7.5 7.0 7.6 7.9 7.1 8.0 7.9 8.6 9.1 8.1 8.3 8.2 8.5 8.4 7.7 7.1 7.1 6.7 6.7 6.6 6.5 6.4 6.4 6.1 6.0 6.0 6.0 6.0 6.0 6.0 6.0 6.1 6.2 6.3
6.7 6.5 6.2 6.9 6.8 7.0 6.6 6.9 6.5 5.2 5.5 6.4 7.4 7.4 7.2 8.3 8.8 8.9 9.1 9.4 9.0 8.6 8.6 8.7 8.5 7.9 7.8 7.1 6.8 6.7 6.7 6.7 6.6 6.3 6.2 6.1 6.0 6.0 6.0 6.1 6.1 6.2 6.1 6.1
6.8 6.2 7.3 7.2 7.0 7.5 7.4 6.8 7.1 7.4 7.4 7.0 7.3 7.5 7.7 8.3 8.6 8.0 8.5 9.0 9.0 8.6 8.4 8.6 8.9 8.3 7.8 7.5 7.1 6.8 6.8 6.8 6.7 6.6 6.3 6.3 6.2 6.2 6.4 6.3 6.2 6.3 6.2 6.2
4.6 5.2 7.5 7.1 8.1 7.3 7.0 7.3 7.1 7.0 5.7 5.8 6.7 7.6 7.6 8.3 8.3 8.4 8.5 8.8 8.2 8.4 8.4 8.7 8.6 8.7 8.1 7.8 7.5 6.9 6.7 6.8 6.9 6.6 6.4 6.4 6.6 6.5 6.3 6.3 6.3 6.3 6.2 6.2
3.4 3.5 6.7 8.2 7.9 7.2 7.1 7.8 7.9 8.2 7.5 5.8 5.2 6.8 8.0 8.7 8.9 9.2 9.1 8.9 8.8 8.2 8.7 8.8 8.5 8.8 8.9 8.1 7.5 7.0 6.7 6.6 6.6 6.5 6.6 6.7 6.7 6.5 6.3 6.3 6.2 6.2 6.3 6.4
3.4 2.7 5.3 7.6 7.2 7.9 8.3 7.7 8.5 8.2 6.8 7.7 7.5 7.6 8.4 8.7 9.0 9.2 9.4 9.4 9.0 8.3 8.8 8.9 8.7 9.0 8.8 8.4 7.7 7.3 6.9 6.5 6.8 7.1 7.0 6.9 6.8 6.5 6.3 6.3 6.2 6.3 6.4 6.3
4.2 3.3 4.2 6.6 7.4 8.4 8.2 8.2 8.0 7.7 8.3 7.8 7.1 7.4 8.4 8.5 8.9 8.9 9.1 9.5 9.0 9.0 8.4 8.4 8.9 9.1 8.7 8.6 7.9 7.8 7.2 6.7 7.0 7.2 7.3 7.1 6.9 6.8 6.6 6.5 6.5 6.5 6.6 6.4
3.9 2.3 2.6 3.7 7.1 7.6 7.8 8.1 8.4 8.4 7.8 7.5 7.4 7.9 8.3 8.9 8.5 9.0 9.5 9.2 9.3 9.2 9.2 8.6 9.4 9.0 8.7 9.1 8.3 8.1 7.5 6.9 6.8 7.1 7.3 7.3 7.2 7.1 7.0 7.0 6.9 6.8 6.7 6.6
3.7 3.3 4.0 3.8 4.6 6.4 7.6 8.5 8.6 8.4 8.2 7.6 7.6 7.9 8.6 8.5 8.6 9.2 9.4 9.1 9.3 9.3 9.4 9.3 9.3 8.8 8.7 9.0 8.9 8.4 7.9 7.6 7.3 7.5 7.5 7.7 7.5 7.4 7.3 7.4 7.5 7.2 7.1 6.9
4.0 4.4 3.3 5.3 6.7 7.3 7.5 8.2 8.8 8.8 8.4 8.3 8.1 8.1 8.7 8.5 8.9 9.3 9.4 9.1 9.3 9.2 9.4 9.4 9.4 8.9 8.7 8.9 9.2 8.7 8.5 8.0 7.7 7.6 7.8 7.6 7.7 7.8 7.9 7.9 7.9 7.8 7.7 7.5
4.2 3.8 3.4 6.0 7.6 7.9 8.3 8.5 8.7 9.0 9.0 8.8 8.3 8.4 8.7 8.7 9.3 9.2 9.3 9.3 9.3 9.4 9.2 9.2 9.2 9.1 9.1 9.1 9.0 9.1 8.8 8.2 8.2 8.3 8.0 7.9 7.9 8.2 8.3 8.2 8.0 8.1 8.1 7.9
4.0 4.0 3.9 6.2 7.3 7.5 7.3 7.9 8.2 8.6 8.4 8.8 8.3 8.7 9.0 8.9 9.3 9.4 9.2 9.4 9.4 9.0 8.9 8.9 8.9 8.8 9.1 9.0 8.8 8.8 9.0 8.6 8.4 9.0 8.7 8.6 8.4 8.5 8.5 8.4 8.3 8.2 8.2 8.3
4.2 3.7 4.6 5.9 6.2 7.9 8.2 7.7 7.0 6.9 6.9 7.0 8.0 8.8 9.1 9.1 9.3 8.9 8.7 8.7 8.4 8.1 8.1 8.2 7.9 8.1 8.2 8.3 8.3 8.4 8.5 8.5 8.4 9.1 9.3 9.2 8.8 8.8 8.7 8.8 8.7 8.6 8.4 8.3
4.1 3.9 4.2 5.6 5.8 5.9 5.0 6.9 7.3 7.0 6.6 6.6 7.5 7.7 8.5 8.9 9.3 8.6 8.3 8.3 8.1 7.9 7.8 7.4 7.1 7.5 7.8 7.8 7.9 8.1 8.5 8.5 8.5 9.0 8.9 8.8 8.9 9.0 9.0 8.9 8.8 8.6 8.6 8.5
3.9 4.8 5.8 5.6 5.5 5.1 4.7 6.3 7.0 6.2 5.1 5.3 6.4 7.3 8.0 8.0 8.3 8.3 8.3 8.1 8.2 7.8 7.8 7.6 7.4 7.4 7.4 7.4 7.5 7.5 7.9 8.3 8.5 8.4 8.4 8.7 9.0 9.2 9.1 9.0 8.9 8.8 8.8 8.8
4.1 4.3 4.5 4.8 4.6 4.3 3.9 4.6 4.3 4.2 4.8 5.1 5.5 5.7 6.4 7.0 7.5 8.1 8.0 7.9 8.2 8.2 8.0 8.0 8.0 7.9 7.8 7.6 7.6 7.8 7.8 8.0 8.2 8.4 8.4 8.4 8.7 9.0 9.0 8.9 8.6 8.7 8.7 8.9
4.6 3.7 4.0 3.7 3.7 3.7 3.2 3.3 3.7 4.0 4.0 4.9 5.2 4.9 5.3 5.9 6.6 7.4 7.5 7.7 7.6 8.2 8.2 8.0 8.1 7.9 7.7 7.8 7.7 7.4 7.5 7.6 7.7 7.9 7.9 8.1 8.2 8.5 8.5 8.4 8.4 8.5 8.8 8.9
5.1 4.0 4.0 3.7 3.5 4.0 3.6 3.0 3.4 3.9 3.7 4.2 4.8 4.4 4.7 5.5 5.8 6.4 7.1 7.6 7.5 7.5 7.6 7.5 7.7 7.9 8.0 7.8 7.8 7.4 7.1 7.1 7.1 7.4 7.5 7.6 7.7 8.0 8.0 8.0 8.0 8.1 8.4 8.6
5.1 4.8 4.7 4.6 4.3 3.8 4.1 4.0 3.7 3.9 4.0 4.3 4.2 4.1 4.4 5.2 5.7 6.3 6.8 7.5 7.9 7.1 7.5 7.5 7.6 7.8 7.9 7.9 7.9 7.6 7.3 7.1 7.1 7.2 7.2 7.4 7.6 7.6 7.6 7.5 7.7 7.9 8.0 8.0
5.0 4.6 4.4 5.3 4.9 4.5 4.5 4.0 3.9 4.0 4.1 4.6 4.1 3.7 4.1 5.2 5.8 5.9 6.0 6.7 7.4 6.6 6.4 6.8 6.9 7.2 7.2 7.5 7.6 7.7 7.6 7.4 7.2 7.0 7.0 7.1 7.3 7.6 7.6 7.7 7.7 7.5 7.6 7.8
Wind_Speed
10 11 17 25 15 6 5 8 8 10 13 7 16 17 30 29 25 23 23 23 26 28 23 21 20 20 17 12 19 20 18 14 10 5 4 3 4 2 2 5 13 12 14 15
4 20 21 7 12 14 14 9 11 16 16 5 7 20 30 29 28 28 25 24 23 22 24 24 23 21 20 17 19 20 19 15 11 9 6 3 3 3 2 5 11 16 13 14
20 6 16 16 15 17 15 14 13 9 8 5 5 10 21 16 16 18 20 21 21 23 22 27 26 24 21 21 21 21 20 19 16 12 5 2 3 2 2 2 3 7 13 14
17 23 22 20 21 18 17 18 18 13 8 9 7 7 14 20 19 18 18 19 24 22 21 24 24 25 23 22 21 21 20 18 15 13 11 12 9 8 5 4 3 5 14 12
23 24 26 24 25 19 19 12 16 16 6 3 13 2 7 24 22 21 22 22 18 23 23 24 27 26 25 22 21 19 20 19 16 16 15 12 10 7 4 3 6 6 8 14
22 9 22 30 21 20 10 11 9 11 4 9 21 7 4 21 27 28 24 23 21 22 24 25 26 23 21 20 20 18 18 19 18 17 16 16 14 8 7 5 6 5 6 7
20 22 23 11 21 16 14 8 8 7 8 10 15 6 11 27 30 33 32 26 25 24 23 24 23 23 20 23 23 20 21 19 19 19 17 16 15 12 12 8 6 6 5 4
17 21 24 19 9 20 17 12 6 13 6 12 4 7 7 14 30 25 29 32 29 25 22 23 26 27 24 24 24 23 22 21 19 20 19 16 15 11 10 8 6 7 7 8
6 20 14 26 20 20 10 19 11 6 2 3 5 5 4 11 8 14 26 22 27 28 24 26 25 26 24 23 25 25 24 22 20 20 17 15 13 14 12 11 8 6 6 7
7 8 28 22 19 18 21 8 10 4 7 5 5 6 10 10 13 10 24 27 29 27 26 22 23 26 24 22 24 24 23 24 21 20 17 15 14 15 13 9 9 8 7 8
16 5 7 1 19 29 7 15 6 6 6 7 3 11 7 12 10 13 20 28 29 27 27 25 23 24 26 23 21 22 21 22 19 18 18 17 16 15 10 11 10 11 7 8
14 6 6 14 8 2 20 9 11 9 11 3 5 10 4 14 15 16 14 25 30 30 31 26 26 24 23 22 21 22 21 21 21 21 19 18 15 13 13 12 12 11 12 7
9 4 7 6 6 6 5 15 13 6 5 11 11 11 1 7 9 17 27 24 28 30 30 27 23 22 22 22 21 20 20 22 20 18 18 16 15 14 15 16 15 12 11 10
10 5 7 6 4 8 4 9 13 17 9 10 14 10 9 13 17 8 16 14 18 30 29 25 23 22 21 22 22 21 20 19 19 18 18 17 17 16 16 15 15 14 10 10
4 6 7 18 24 21 20 6 19 14 14 15 12 7 10 11 12 6 7 9 16 25 29 27 25 23 22 22 20 18 19 19 20 19 19 18 17 16 16 15 15 14 14 12
5 5 9 11 12 15 11 7 7 18 15 7 8 9 6 6 11 7 7 13 17 24 28 29 28 25 22 22 21 20 19 20 20 20 20 18 17 17 17 16 15 15 15 15
4 3 5 6 9 7 2 10 7 14 8 13 6 9 5 9 9 12 6 14 10 13 26 26 26 25 23 22 21 20 21 18 19 19 18 18 17 17 18 17 16 15 16 15
6 3 3 5 9 7 7 20 14 20 19 21 14 10 13 15 14 17 16 10 17 14 12 8 9 11 10 12 15 14 14 17 18 17 17 16 16 16 15 15 16 15 14 15
10 4 4 2 4 1 13 16 15 4 13 20 18 10 17 16 24 16 16 13 7 8 7 8 9 6 7 14 16 16 16 16 15 17 17 16 17 17 16 16 16 15 14 14
8 10 3 4 2 5 11 24 21 8 14 21 19 18 10 3 13 4 10 14 11 8 7 8 7 8 10 3 7 14 16 16 18 17 16 14 15 17 17 17 17 15 14 15
4 7 3 1 4 5 20 29 14 9 3 12 13 15 17 15 6 1 11 16 14 12 12 7 11 9 6 6 8 6 6 15 17 15 15 14 16 17 17 16 14 14 14 14
4 4 4 5 5 4 19 13 13 10 6 12 13 10 13 12 15 13 14 15 16 16 16 14 13 13 11 9 8 8 7 4 6 7 7 10 13 12 11 15 13 14 13 13
4 1 2 4 3 4 4 6 13 16 13 5 6 7 7 13 14 15 11 13 12 13 12 12 11 10 11 11 10 10 7 7 3 6 7 8 8 9 9 12 11 9 11 10
5 2 2 3 6 9 8 9 15 16 17 15 12 6 5 8 10 11 12 11 11 10 10 8 11 10 7 6 8 6 6 7 7 6 3 5 7 7 7 7 8 8 8 8
5 6 8 4 5 5 7 9 13 20 18 16 12 12 8 8 7 8 8 9 10 10 10 9 8 7 7 6 6 5 5 6 6 6 6 4 4 6 5 6 3 3 5 8
6 7 3 4 9 7 16 8 13 16 19 16 13 12 12 10 10 10 10 7 7 10 10 9 8 6 6 7 7 7 6 6 5 5 4 3 3 4 6 6 7 15 12 9
Wind_Direction
193 196 206 214 210 240 237 213 246 255 243 195 225 156 163 176 184 177 183 188 185 182 200 197 200 198 197 180 181 186 183 181 173 168 159 173 192 235 149 188 188 201 185 165
169 216 219 200 206 215 230 240 244 263 269 187 191 169 168 178 185 184 180 188 193 187 188 198 201 199 195 183 185 184 185 179 183 180 180 162 166 208 185 175 201 193 199 171
210 232 209 208 224 213 220 225 243 229 283 305 246 154 167 192 189 175 192 197 190 185 182 191 197 197 197 184 184 184 184 183 186 180 156 104 88 23 241 190 185 189 196 179
225 232 200 215 219 208 218 220 240 247 251 253 180 186 201 176 190 203 203 205 184 201 185 185 191 197 195 188 183 181 183 183 184 174 179 182 195 199 218 202 173 181 187 190
218 201 216 210 215 205 223 212 231 242 229 283 262 236 216 185 197 203 214 224 203 190 194 188 187 187 189 179 183 179 181 182 179 181 183 184 192 203 188 196 173 183 188 192
225 223 208 227 222 218 198 206 240 242 198 240 253 173 218 187 202 199 214 223 202 199 200 197 192 187 183 180 178 179 177 183 183 184 186 187 191 190 192 195 194 180 194 198
236 226 236 205 218 209 215 150 218 243 225 230 245 178 225 195 205 207 200 206 202 201 197 196 191 193 185 182 182 181 181 182 185 186 187 191 193 191 196 194 192 175 180 190
214 235 221 220 196 208 211 200 179 214 207 229 215 210 242 195 209 212 202 191 196 196 199 197 194 192 189 184 184 186 185 187 185 188 192 192 195 199 203 194 192 192 193 197
255 228 232 217 218 192 205 214 176 130 255 167 223 260 271 247 203 181 193 198 202 199 203 202 194 194 191 185 186 188 187 191 188 193 191 192 196 199 202 203 195 186 184 194
301 299 227 236 209 227 210 165 188 179 206 239 269 222 225 233 235 175 192 191 203 199 203 204 196 192 193 190 188 186 189 189 190 193 194 197 192 199 202 192 195 190 192 196
318 304 277 179 210 213 209 201 198 157 158 208 236 251 206 224 229 227 183 191 200 193 200 200 199 197 194 191 186 187 187 189 190 191 197 199 204 203 193 197 202 206 196 194
316 293 278 232 242 264 217 196 186 202 211 195 172 259 202 210 213 226 194 188 194 194 201 199 193 194 191 190 186 188 186 187 192 192 195 200 198 198 201 203 204 204 210 191
337 345 316 310 31 283 216 211 197 148 135 206 213 248 349 270 232 238 223 177 192 195 197 197 183 188 188 191 190 187 186 192 192 192 194 196 198 195 203 209 209 207 205 206
326 247 239 274 272 336 219 249 196 189 200 200 221 260 293 288 291 264 187 179 164 187 186 187 184 187 187 192 191 189 189 190 190 191 194 197 197 199 203 208 212 210 204 204
302 264 258 266 273 270 256 251 205 198 193 201 216 220 258 271 283 219 160 145 150 176 181 182 183 185 188 191 193 189 192 187 187 191 194 198 198 199 202 204 209 210 209 207
257 276 309 292 242 215 230 242 272 208 200 181 158 227 218 290 292 92 104 137 161 173 181 184 184 182 183 188 190 187 189 190 187 193 197 196 197 201 202 205 202 206 209 212
224 290 336 271 325 151 122 352 311 204 189 198 139 232 189 56 341 19 34 101 120 161 180 182 182 182 185 187 186 186 188 186 192 197 197 198 198 201 204 204 204 204 208 208
232 233 238 269 307 148 124 37 26 63 38 21 348 330 117 116 75 44 28 45 85 85 96 109 153 159 163 173 184 186 181 190 195 194 197 197 196 204 205 203 206 209 210 209
222 241 268 285 280 204 19 1 338 6 43 10 341 137 126 120 73 34 16 19 19 82 87 90 93 118 139 169 171 177 182 191 197 201 202 195 194 199 202 204 205 207 209 215
245 263 209 319 357 49 346 336 328 142 36 354 3 26 22 316 83 10 354 18 14 32 53 70 75 91 91 101 164 176 188 190 202 203 205 198 194 201 203 203 206 207 211 215
278 300 197 172 64 44 359 342 28 58 23 353 359 30 41 58 74 170 39 34 33 37 36 36 58 66 70 95 113 136 172 202 204 201 200 193 199 201 205 205 207 209 210 216
39 345 0 348 66 60 360 5 51 343 28 22 12 17 37 43 43 35 36 34 30 30 27 27 61 59 49 47 71 77 78 300 197 165 176 198 199 201 199 201 203 207 208 213
55 107 356 27 77 283 34 353 359 359 7 348 8 355 35 38 35 33 19 21 26 32 27 27 39 55 59 58 58 54 0 355 20 158 204 200 188 185 178 187 192 197 202 210
329 36 44 11 342 2 61 14 350 353 338 356 351 346 37 54 33 31 20 11 19 27 32 23 31 35 43 61 67 63 21 9 14 6 286 205 187 183 181 187 183 187 191 202
351 26 329 318 6 18 84 35 351 332 332 342 2 15 35 42 16 29 11 4 3 7 14 18 18 7 7 23 46 60 35 25 359 348 323 262 193 182 142 72 42 198 183 197
33 353 346 272 308 301 274 302 332 322 318 334 345 2 358 15 22 16 22 2 6 4 2 11 2 1 348 2 10 3 14 30 14 336 327 258 177 170 140 121 82 42 38 46